• In Czech Republic
  • List of Countries
  • For 7 days
  • Water Temperature
  • Satellite Maps
  • Weather Map
  • Weather Widgets
  • user-avatar
    Login

    Hourly Weather Tuchów

    Today, 24 November, Friday

    Time Temperature Precipitation Wind Pressure Humidity
    00:00 +2°C° 0 mm 3 mps 742 mmHg 86%
    01:00 +3°C° 0 mm 2 mps 742 mmHg 86%
    02:00 +3°C° 0 mm 2 mps 742 mmHg 85%
    03:00 +3°C° 0 mm 2 mps 742 mmHg 85%
    04:00 +3°C° 0 mm 2 mps 742 mmHg 84%
    05:00 +3°C° 0 mm 2 mps 742 mmHg 84%
    06:00 +3°C° 0 mm 2 mps 742 mmHg 84%
    07:00 +3°C° 0 mm 2 mps 742 mmHg 83%
    08:00 +4°C° 0 mm 2 mps 742 mmHg 79%
    09:00 +6°C° 0 mm 2 mps 742 mmHg 75%
    10:00 +7°C° 0 mm 3 mps 742 mmHg 72%
    11:00 +8°C° 0 mm 3 mps 742 mmHg 70%
    12:00 +9°C° 0 mm 3 mps 742 mmHg 69%
    13:00 +10°C° 0 mm 3 mps 742 mmHg 68%
    14:00 +9°C° 0 mm 3 mps 741 mmHg 73%
    15:00 +8°C° 0 mm 3 mps 741 mmHg 78%
    16:00 +7°C° 0 mm 3 mps 741 mmHg 84%
    17:00 +7°C° 0 mm 3 mps 741 mmHg 85%
    18:00 +7°C° 0 mm 3 mps 742 mmHg 87%
    19:00 +5°C° 0 mm 3 mps 742 mmHg 88%
    20:00 +5°C° 0 mm 3 mps 742 mmHg 88%
    21:00 +5°C° 0 mm 3 mps 742 mmHg 88%
    22:00 +5°C° 0 mm 3 mps 742 mmHg 87%
    23:00 +5°C° 0 mm 3 mps 742 mmHg 87%

    Tomorrow, 25 November, Saturday

    Time Temperature Precipitation Wind Pressure Humidity
    00:00 +7°C° 0 mm 3 mps 742 mmHg 86%
    01:00 +7°C° 0 mm 3 mps 742 mmHg 86%
    02:00 +7°C° 0 mm 3 mps 742 mmHg 87%
    03:00 +5°C° 0 mm 3 mps 741 mmHg 88%
    04:00 +5°C° 0 mm 3 mps 741 mmHg 89%
    05:00 +5°C° 0 mm 3 mps 741 mmHg 89%
    06:00 +5°C° 0 mm 4 mps 741 mmHg 89%
    07:00 +5°C° 0 mm 4 mps 740 mmHg 89%
    08:00 +6°C° 0 mm 5 mps 740 mmHg 85%
    09:00 +7°C° 0 mm 5 mps 739 mmHg 80%
    10:00 +8°C° 0 mm 6 mps 739 mmHg 76%
    11:00 +8°C° 0 mm 6 mps 738 mmHg 74%
    12:00 +9°C° 0 mm 7 mps 738 mmHg 72%
    13:00 +9°C° 0 mm 7 mps 737 mmHg 70%
    14:00 +8°C° 0 mm 7 mps 737 mmHg 72%
    15:00 +8°C° 0 mm 6 mps 736 mmHg 74%
    16:00 +7°C° 0 mm 6 mps 736 mmHg 77%
    17:00 +7°C° 0 mm 6 mps 736 mmHg 77%
    18:00 +7°C° 0 mm 6 mps 736 mmHg 78%
    19:00 +8°C° 0 mm 6 mps 736 mmHg 79%
    20:00 +8°C° 0.1 mm 5 mps 736 mmHg 79%
    21:00 +8°C° 0.1 mm 5 mps 736 mmHg 79%
    22:00 +8°C° 0.1 mm 5 mps 736 mmHg 80%
    23:00 +7°C° 0 mm 4 mps 736 mmHg 82%

    Day after tomorrow, 26 November, Sunday

    Time Temperature Precipitation Wind Pressure Humidity
    00:00 +7°C° 0 mm 4 mps 736 mmHg 83%
    01:00 +8°C° 0 mm 3 mps 737 mmHg 85%
    02:00 +7°C° 0.2 mm 3 mps 737 mmHg 86%
    03:00 +7°C° 0.2 mm 3 mps 737 mmHg 87%
    04:00 +7°C° 0.2 mm 3 mps 738 mmHg 88%
    05:00 +5°C° 0.8 mm 3 mps 738 mmHg 87%
    06:00 +5°C° 0.8 mm 3 mps 739 mmHg 86%
    07:00 +4°C° 0.8 mm 3 mps 739 mmHg 85%
    08:00 +4°C° 0.5 mm 4 mps 740 mmHg 85%
    09:00 +4°C° 0.5 mm 4 mps 741 mmHg 84%
    10:00 +4°C° 0.5 mm 4 mps 741 mmHg 83%
    11:00 +4°C° 0.5 mm 4 mps 741 mmHg 82%
    12:00 +4°C° 0.5 mm 4 mps 741 mmHg 82%
    13:00 +4°C° 0.5 mm 4 mps 741 mmHg 81%
    14:00 +3°C° 0.5 mm 4 mps 742 mmHg 81%
    15:00 +3°C° 0.5 mm 4 mps 742 mmHg 82%
    16:00 +3°C° 0.5 mm 3 mps 742 mmHg 82%
    17:00 +2°C° 0.2 mm 3 mps 743 mmHg 83%
    18:00 +2°C° 0.2 mm 3 mps 743 mmHg 84%
    19:00 +2°C° 0.2 mm 3 mps 743 mmHg 85%
    20:00 +2°C° 0.1 mm 3 mps 744 mmHg 85%
    21:00 +2°C° 0.1 mm 3 mps 744 mmHg 86%
    22:00 +1°C° 0.1 mm 3 mps 744 mmHg 87%
    23:00 +1°C° 0 mm 3 mps 744 mmHg 88%

    27 November, Monday

    Time Temperature Precipitation Wind Pressure Humidity
    00:00 0°C° 0 mm 3 mps 745 mmHg 89%
    01:00 0°C° 0 mm 3 mps 745 mmHg 89%
    02:00 0°C° 0 mm 3 mps 745 mmHg 90%
    03:00 -1°C° 0 mm 3 mps 745 mmHg 90%
    04:00 -1°C° 0 mm 3 mps 745 mmHg 90%
    05:00 -1°C° 0 mm 3 mps 745 mmHg 91%
    06:00 -1°C° 0 mm 3 mps 746 mmHg 91%
    07:00 -2°C° 0 mm 3 mps 746 mmHg 91%
    08:00 -1°C° 0 mm 3 mps 746 mmHg 86%
    09:00 0°C° 0 mm 3 mps 746 mmHg 81%
    10:00 0°C° 0 mm 4 mps 746 mmHg 77%
    11:00 0°C° 0 mm 4 mps 746 mmHg 75%
    12:00 +1°C° 0 mm 4 mps 746 mmHg 73%
    13:00 +1°C° 0 mm 4 mps 746 mmHg 71%
    14:00 +2°C° 0 mm 3 mps 746 mmHg 75%
    15:00 +1°C° 0 mm 3 mps 746 mmHg 79%
    16:00 +2°C° 0 mm 2 mps 746 mmHg 83%
    17:00 +1°C° 0 mm 2 mps 746 mmHg 84%
    18:00 +1°C° 0 mm 2 mps 746 mmHg 85%
    19:00 +1°C° 0 mm 2 mps 746 mmHg 85%
    20:00 +1°C° 0 mm 2 mps 746 mmHg 85%
    21:00 +2°C° 0 mm 1 mps 746 mmHg 85%
    22:00 +2°C° 0 mm 1 mps 746 mmHg 85%
    23:00 +2°C° 0 mm 1 mps 746 mmHg 86%

    28 November, Tuesday

    Time Temperature Precipitation Wind Pressure Humidity
    00:00 +1°C° 0 mm 1 mps 745 mmHg 87%
    01:00 +1°C° 0 mm 1 mps 745 mmHg 88%
    02:00 +1°C° 0 mm 1 mps 745 mmHg 88%
    03:00 0°C° 0 mm 1 mps 744 mmHg 89%
    04:00 0°C° 0 mm 1 mps 744 mmHg 89%
    05:00 0°C° 0 mm 1 mps 744 mmHg 89%
    06:00 0°C° 0 mm 1 mps 744 mmHg 89%
    07:00 0°C° 0 mm 1 mps 744 mmHg 89%
    08:00 -1°C° 0 mm 2 mps 743 mmHg 83%
    09:00 +1°C° 0 mm 2 mps 743 mmHg 77%
    10:00 +2°C° 0 mm 2 mps 743 mmHg 72%
    11:00 +3°C° 0 mm 2 mps 742 mmHg 69%
    12:00 +3°C° 0 mm 2 mps 742 mmHg 66%
    13:00 +4°C° 0 mm 2 mps 741 mmHg 62%
    14:00 +3°C° 0 mm 2 mps 741 mmHg 68%
    15:00 +2°C° 0 mm 2 mps 740 mmHg 74%
    16:00 +1°C° 0 mm 2 mps 740 mmHg 80%
    17:00 -1°C° 0 mm 2 mps 740 mmHg 81%
    18:00 -1°C° 0 mm 2 mps 740 mmHg 82%
    19:00 -2°C° 0 mm 2 mps 739 mmHg 84%
    20:00 -2°C° 0 mm 2 mps 739 mmHg 82%
    21:00 -2°C° 0 mm 2 mps 739 mmHg 81%
    22:00 -2°C° 0 mm 2 mps 738 mmHg 80%
    23:00 -2°C° 0 mm 2 mps 738 mmHg 78%

    29 November, Wednesday

    Time Temperature Precipitation Wind Pressure Humidity
    00:00 -2°C° 0 mm 2 mps 738 mmHg 77%
    01:00 -2°C° 0 mm 2 mps 738 mmHg 75%
    02:00 -2°C° 0 mm 2 mps 737 mmHg 74%
    03:00 -1°C° 0 mm 2 mps 737 mmHg 73%
    04:00 -1°C° 0 mm 2 mps 737 mmHg 72%
    05:00 -1°C° 0 mm 3 mps 736 mmHg 71%
    06:00 -1°C° 0 mm 3 mps 736 mmHg 71%
    07:00 -1°C° 0 mm 3 mps 736 mmHg 70%
    08:00 0°C° 0 mm 3 mps 736 mmHg 66%
    09:00 0°C° 0 mm 4 mps 736 mmHg 63%
    10:00 0°C° 0 mm 4 mps 736 mmHg 59%
    11:00 +1°C° 0 mm 4 mps 735 mmHg 58%
    12:00 +1°C° 0 mm 4 mps 735 mmHg 58%
    13:00 +3°C° 0 mm 4 mps 735 mmHg 58%
    14:00 +1°C° 0 mm 4 mps 735 mmHg 62%
    15:00 0°C° 0 mm 4 mps 735 mmHg 67%
    16:00 -1°C° 0 mm 4 mps 735 mmHg 72%
    17:00 -1°C° 0 mm 4 mps 735 mmHg 75%
    18:00 -1°C° 0 mm 3 mps 735 mmHg 78%
    19:00 -1°C° 0 mm 3 mps 735 mmHg 81%
    20:00 -1°C° 0 mm 3 mps 735 mmHg 82%
    21:00 -1°C° 0 mm 3 mps 735 mmHg 83%
    22:00 -1°C° 0 mm 2 mps 736 mmHg 84%
    23:00 -1°C° 0 mm 2 mps 735 mmHg 83%
    Show more